| time (UTC) | temp F | wind direction | speed MPH | gust MPH | rain 1hr in | rain 24hr in | rain mn in | humidity % | barometer mb |
| 20260504173011 | 64 | 137 | 1.0 | 8.0 | 0.00 | 0.00 | 0.00 | 49 | 1014.9 |
| 20260504172506 | 66 | 243 | 5.0 | 8.0 | 0.00 | 0.00 | 0.00 | 51 | 1014.9 |
| 20260504172003 | 65 | 112 | 0.0 | 2.0 | 0.00 | 0.00 | 0.00 | 57 | 1014.8 |
| 20260504171500 | 65 | 228 | 1.0 | 6.0 | 0.00 | 0.00 | 0.00 | 49 | 1014.8 |
| 20260504170957 | 63 | 224 | 2.0 | 7.0 | 0.00 | 0.00 | 0.00 | 53 | 1014.7 |
| 20260504170453 | 62 | 209 | 6.0 | 9.0 | 0.00 | 0.00 | 0.00 | 54 | 1015.1 |
| 20260504160413 | 64 | 248 | 1.0 | 3.0 | 0.00 | 0.00 | 0.00 | 49 | 1015.5 |
| 20260504150837 | 62 | 246 | 4.0 | 9.0 | 0.00 | 0.00 | 0.00 | 48 | 1016.0 |
| 20260504150333 | 62 | 207 | 2.0 | 13.0 | 0.00 | 0.00 | 0.00 | 50 | 1016.1 |
| 20260504141303 | 60 | 185 | 7.0 | 10.0 | 0.00 | 0.00 | 0.00 | 46 | 1016.1 |
| 20260504140800 | 60 | 228 | 5.0 | 7.0 | 0.00 | 0.00 | 0.00 | 47 | 1015.8 |
| 20260504140256 | 60 | 248 | 3.0 | 10.0 | 0.00 | 0.00 | 0.00 | 48 | 1015.9 |
| 20260504130725 | 55 | 109 | 2.0 | 2.0 | 0.00 | 0.00 | 0.00 | 53 | 1015.8 |
| 20260504130220 | 53 | 131 | 0.0 | 1.0 | 0.00 | 0.00 | 0.00 | 59 | 1016.0 |
| 20260504120144 | 43 | 162 | 1.0 | 2.0 | 0.00 | 0.00 | 0.00 | 83 | 1016.3 |
| 20260504110612 | 42 | 188 | 2.0 | 2.0 | 0.00 | 0.00 | 0.00 | 87 | 1016.3 |
| 20260504110108 | 42 | 128 | 1.0 | 2.0 | 0.00 | 0.00 | 0.00 | 89 | 1016.6 |
| 20260504100533 | 42 | 141 | 0.0 | 0.0 | 0.00 | 0.00 | 0.00 | 87 | 1016.7 |
| 20260504081927 | 42 | 210 | 1.0 | 3.0 | 0.00 | 0.00 | 0.00 | 87 | 1016.7 |
| 20260504081424 | 43 | 148 | 1.0 | 2.0 | 0.00 | 0.00 | 0.00 | 87 | 1016.5 |
| 20260504080920 | 43 | 122 | 1.0 | 2.0 | 0.00 | 0.00 | 0.00 | 84 | 1016.7 |
| 20260504080417 | 43 | 122 | 1.0 | 2.0 | 0.00 | 0.00 | 0.00 | 84 | 1016.7 |
| 20260504070344 | 47 | 246 | 1.0 | 2.0 | 0.00 | 0.00 | 0.00 | 60 | 1017.4 |
| 20260504050732 | 42 | 141 | 1.0 | 1.0 | 0.00 | 0.00 | 0.00 | 69 | 1017.5 |
| 20260504050229 | 42 | 142 | 1.0 | 2.0 | 0.00 | 0.00 | 0.00 | 68 | 1017.4 |
| 20260504045726 | 42 | 127 | 1.0 | 1.0 | 0.00 | 0.00 | 0.00 | 69 | 1017.5 |
| 20260504045221 | 43 | 127 | 0.0 | 2.0 | 0.00 | 0.00 | 0.00 | 65 | 1017.4 |
| 20260504044719 | 43 | 155 | 1.0 | 2.0 | 0.00 | 0.00 | 0.00 | 66 | 1017.3 |
| 20260504044216 | 43 | 164 | 1.0 | 1.0 | 0.00 | 0.00 | 0.00 | 66 | 1017.2 |
| 20260504043713 | 43 | 133 | 0.0 | 2.0 | 0.00 | 0.00 | 0.00 | 63 | 1017.3 |
| 20260504043210 | 43 | 211 | 1.0 | 1.0 | 0.00 | 0.00 | 0.00 | 65 | 1017.3 |
| 20260504042708 | 43 | 216 | 1.0 | 2.0 | 0.00 | 0.00 | 0.00 | 64 | 1017.4 |
| 20260504042204 | 43 | 130 | 0.0 | 1.0 | 0.00 | 0.00 | 0.00 | 66 | 1017.4 |
| 20260504041700 | 43 | 144 | 1.0 | 2.0 | 0.00 | 0.00 | 0.00 | 68 | 1017.4 |
| 20260504041155 | 43 | 144 | 0.0 | 1.0 | 0.00 | 0.00 | 0.00 | 68 | 1017.2 |
| 20260504040653 | 43 | 144 | 1.0 | 1.0 | 0.00 | 0.00 | 0.00 | 67 | 1017.5 |
| 20260504040150 | 43 | 144 | 1.0 | 2.0 | 0.00 | 0.00 | 0.00 | 68 | 1017.3 |
| 20260504035646 | 42 | 144 | 0.0 | 0.0 | 0.00 | 0.00 | 0.00 | 67 | 1017.4 |
| 20260504035143 | 43 | 144 | 0.0 | 0.0 | 0.00 | 0.00 | 0.00 | 71 | 1017.3 |
| 20260504034641 | 43 | 144 | 0.0 | 1.0 | 0.00 | 0.00 | 0.00 | 70 | 1017.3 |
| 20260504034138 | 43 | 156 | 1.0 | 2.0 | 0.00 | 0.00 | 0.00 | 65 | 1017.4 |
| 20260504033635 | 44 | 126 | 1.0 | 1.0 | 0.00 | 0.00 | 0.00 | 63 | 1017.2 |
| 20260504033133 | 43 | 126 | 0.0 | 1.0 | 0.00 | 0.00 | 0.00 | 66 | 1017.3 |
| 20260504032629 | 43 | 126 | 1.0 | 1.0 | 0.00 | 0.00 | 0.00 | 65 | 1017.2 |
| 20260504032126 | 44 | 126 | 0.0 | 1.0 | 0.00 | 0.00 | 0.00 | 62 | 1017.3 |
| 20260504031624 | 44 | 126 | 2.0 | 2.0 | 0.00 | 0.00 | 0.00 | 61 | 1017.3 |
| 20260504031120 | 44 | 126 | 1.0 | 1.0 | 0.00 | 0.00 | 0.00 | 60 | 1017.5 |
| 20260504030617 | 45 | 126 | 1.0 | 2.0 | 0.00 | 0.00 | 0.00 | 59 | 1017.5 |
| 20260504030113 | 45 | 116 | 2.0 | 2.0 | 0.00 | 0.00 | 0.00 | 56 | 1017.3 |
| 20260504025610 | 46 | 145 | 1.0 | 1.0 | 0.00 | 0.00 | 0.00 | 57 | 1017.3 |
| 20260504025107 | 46 | 168 | 1.0 | 1.0 | 0.00 | 0.00 | 0.00 | 58 | 1017.3 |
| 20260504024604 | 46 | 168 | 1.0 | 1.0 | 0.00 | 0.00 | 0.00 | 58 | 1017.5 |
| 20260504024101 | 46 | 168 | 0.0 | 1.0 | 0.00 | 0.00 | 0.00 | 56 | 1017.5 |
| 20260504023557 | 46 | 172 | 1.0 | 1.0 | 0.00 | 0.00 | 0.00 | 56 | 1017.5 |
| 20260504023053 | 46 | 179 | 0.0 | 1.0 | 0.00 | 0.00 | 0.00 | 54 | 1017.4 |
| 20260504022550 | 46 | 179 | 1.0 | 1.0 | 0.00 | 0.00 | 0.00 | 56 | 1017.5 |
| 20260504022046 | 46 | 217 | 1.0 | 1.0 | 0.00 | 0.00 | 0.00 | 57 | 1017.5 |
| 20260504021543 | 46 | 217 | 0.0 | 1.0 | 0.00 | 0.00 | 0.00 | 56 | 1017.4 |
| 20260504021040 | 46 | 217 | 0.0 | 1.0 | 0.00 | 0.00 | 0.00 | 54 | 1017.5 |
| 20260504020537 | 46 | 217 | 1.0 | 1.0 | 0.00 | 0.00 | 0.00 | 58 | 1017.6 |
| 20260504020034 | 46 | 217 | 0.0 | 1.0 | 0.00 | 0.00 | 0.00 | 56 | 1017.5 |
| 20260504015530 | 46 | 217 | 0.0 | 1.0 | 0.00 | 0.00 | 0.00 | 58 | 1017.5 |
| 20260504015026 | 47 | 217 | 0.0 | 0.0 | 0.00 | 0.00 | 0.00 | 56 | 1017.2 |
| 20260504014522 | 46 | 217 | 0.0 | 1.0 | 0.00 | 0.00 | 0.00 | 54 | 1017.3 |
| 20260504014020 | 47 | 217 | 0.0 | 0.0 | 0.00 | 0.00 | 0.00 | 53 | 1017.3 |
| 20260504013518 | 47 | 217 | 0.0 | 0.0 | 0.00 | 0.00 | 0.00 | 52 | 1017.4 |
| 20260504013014 | 47 | 217 | 0.0 | 0.0 | 0.00 | 0.00 | 0.00 | 51 | 1017.4 |
| 20260504012512 | 47 | 217 | 0.0 | 0.0 | 0.00 | 0.00 | 0.00 | 51 | 1017.3 |
| 20260504012010 | 47 | 217 | 0.0 | 1.0 | 0.00 | 0.00 | 0.00 | 50 | 1017.4 |
| 20260504011506 | 47 | 217 | 0.0 | 0.0 | 0.00 | 0.00 | 0.00 | 54 | 1017.0 |
| 20260504011001 | 47 | 217 | 0.0 | 1.0 | 0.00 | 0.00 | 0.00 | 53 | 1017.0 |
| 20260504010458 | 47 | 217 | 0.0 | 0.0 | 0.00 | 0.00 | 0.00 | 49 | 1017.0 |
| 20260504005953 | 47 | 217 | 0.0 | 1.0 | 0.00 | 0.00 | 0.00 | 52 | 1016.9 |
| 20260504005451 | 47 | 217 | 1.0 | 1.0 | 0.00 | 0.00 | 0.00 | 55 | 1017.0 |
| 20260504004948 | 47 | 217 | 0.0 | 0.0 | 0.00 | 0.00 | 0.00 | 51 | 1017.0 |
| 20260504004446 | 48 | 222 | 0.0 | 0.0 | 0.00 | 0.00 | 0.00 | 55 | 1016.9 |
| 20260504003943 | 49 | 222 | 0.0 | 1.0 | 0.00 | 0.00 | 0.00 | 54 | 1016.7 |
| 20260504003439 | 49 | 130 | 2.0 | 3.0 | 0.00 | 0.00 | 0.00 | 41 | 1016.7 |
| 20260504002935 | 49 | 117 | 0.0 | 1.0 | 0.00 | 0.00 | 0.00 | 42 | 1016.6 |
| 20260504002433 | 50 | 116 | 0.0 | 1.0 | 0.00 | 0.00 | 0.00 | 41 | 1016.7 |
| 20260504001930 | 50 | 91 | 1.0 | 2.0 | 0.00 | 0.00 | 0.00 | 39 | 1016.7 |
| 20260504001427 | 50 | 294 | 0.0 | 2.0 | 0.00 | 0.00 | 0.00 | 39 | 1016.6 |
| 20260504000924 | 50 | 186 | 0.0 | 0.0 | 0.00 | 0.00 | 0.00 | 41 | 1016.7 |
| 20260504000423 | 51 | 187 | 0.0 | 1.0 | 0.00 | 0.00 | 0.00 | 38 | 1016.6 |
| 20260503235918 | 51 | 263 | 1.0 | 3.0 | 0.00 | 0.00 | 0.00 | 38 | 1016.6 |
| 20260503235416 | 52 | 291 | 0.0 | 1.0 | 0.00 | 0.00 | 0.00 | 35 | 1016.6 |
| 20260503234913 | 52 | 314 | 1.0 | 3.0 | 0.00 | 0.00 | 0.00 | 34 | 1017.0 |
| 20260503234411 | 51 | 45 | 3.0 | 4.0 | 0.00 | 0.00 | 0.00 | 36 | 1016.9 |
| 20260503233909 | 51 | 82 | 1.0 | 2.0 | 0.00 | 0.00 | 0.00 | 46 | 1016.9 |
| 20260503233405 | 52 | 257 | 1.0 | 1.0 | 0.00 | 0.00 | 0.00 | 38 | 1016.6 |
| 20260503232901 | 53 | 302 | 2.0 | 6.0 | 0.00 | 0.00 | 0.00 | 35 | 1016.9 |
| 20260503232359 | 55 | 45 | 4.0 | 8.0 | 0.00 | 0.00 | 0.00 | 36 | 1016.7 |
| 20260503231856 | 56 | 292 | 1.0 | 4.0 | 0.00 | 0.00 | 0.00 | 32 | 1016.9 |
| 20260503231353 | 56 | 68 | 1.0 | 2.0 | 0.00 | 0.00 | 0.00 | 32 | 1016.7 |
| 20260503230849 | 55 | 313 | 4.0 | 7.0 | 0.00 | 0.00 | 0.00 | 31 | 1016.7 |
| 20260503230346 | 56 | 293 | 2.0 | 4.0 | 0.00 | 0.00 | 0.00 | 34 | 1016.4 |
| 20260503225844 | 57 | 300 | 4.0 | 6.0 | 0.00 | 0.00 | 0.00 | 35 | 1016.6 |
| 20260503225339 | 57 | 145 | 1.0 | 3.0 | 0.00 | 0.00 | 0.00 | 34 | 1016.7 |
| 20260503224836 | 57 | 304 | 3.0 | 4.0 | 0.00 | 0.00 | 0.00 | 34 | 1016.6 |
| 20260503224333 | 57 | 72 | 2.0 | 3.0 | 0.00 | 0.00 | 0.00 | 36 | 1016.7 |
| 20260503223831 | 56 | 71 | 1.0 | 7.0 | 0.00 | 0.00 | 0.00 | 36 | 1016.6 |
| 20260503223328 | 58 | 136 | 3.0 | 4.0 | 0.00 | 0.00 | 0.00 | 31 | 1016.7 |
| 20260503222824 | 57 | 304 | 4.0 | 6.0 | 0.00 | 0.00 | 0.00 | 31 | 1016.6 |
| 20260503222323 | 57 | 280 | 6.0 | 9.0 | 0.00 | 0.00 | 0.00 | 29 | 1016.7 |
| 20260503221820 | 58 | 41 | 2.0 | 6.0 | 0.00 | 0.00 | 0.00 | 33 | 1016.6 |
| 20260503221319 | 58 | 181 | 3.0 | 7.0 | 0.00 | 0.00 | 0.00 | 29 | 1016.5 |
| 20260503220814 | 58 | 276 | 3.0 | 4.0 | 0.00 | 0.00 | 0.00 | 33 | 1016.7 |
| 20260503220312 | 56 | 253 | 0.0 | 7.0 | 0.00 | 0.00 | 0.00 | 30 | 1016.6 |
| 20260503215808 | 58 | 291 | 4.0 | 7.0 | 0.00 | 0.00 | 0.00 | 34 | 1016.4 |
| 20260503215305 | 58 | 296 | 2.0 | 3.0 | 0.00 | 0.00 | 0.00 | 35 | 1016.4 |
| 20260503214803 | 57 | 56 | 1.0 | 4.0 | 0.00 | 0.00 | 0.00 | 33 | 1016.6 |
| 20260503214300 | 57 | 244 | 3.0 | 6.0 | 0.00 | 0.00 | 0.00 | 34 | 1016.4 |
| 20260503213758 | 57 | 252 | 2.0 | 4.0 | 0.00 | 0.00 | 0.00 | 34 | 1016.4 |
| 20260503213255 | 57 | 226 | 0.0 | 6.0 | 0.00 | 0.00 | 0.00 | 31 | 1016.4 |
| 20260503212752 | 57 | 305 | 2.0 | 4.0 | 0.00 | 0.00 | 0.00 | 29 | 1016.6 |
| 20260503212249 | 57 | 49 | 3.0 | 10.0 | 0.00 | 0.00 | 0.00 | 31 | 1016.6 |
| 20260503211747 | 57 | 321 | 3.0 | 3.0 | 0.00 | 0.00 | 0.00 | 30 | 1016.5 |
| 20260503211243 | 58 | 306 | 4.0 | 7.0 | 0.00 | 0.00 | 0.00 | 31 | 1016.6 |
| 20260503210738 | 56 | 268 | 2.0 | 6.0 | 0.00 | 0.00 | 0.00 | 32 | 1016.7 |
| 20260503210236 | 57 | 273 | 6.0 | 9.0 | 0.00 | 0.00 | 0.00 | 32 | 1016.7 |
| 20260503205731 | 58 | 322 | 4.0 | 6.0 | 0.00 | 0.00 | 0.00 | 33 | 1016.7 |
| 20260503205228 | 58 | 308 | 4.0 | 6.0 | 0.00 | 0.00 | 0.00 | 32 | 1016.9 |
| 20260503204724 | 56 | 305 | 1.0 | 3.0 | 0.00 | 0.00 | 0.00 | 36 | 1016.9 |
| 20260503204222 | 56 | 301 | 1.0 | 8.0 | 0.00 | 0.00 | 0.00 | 28 | 1016.9 |
| 20260503203719 | 58 | 121 | 4.0 | 8.0 | 0.00 | 0.00 | 0.00 | 29 | 1016.9 |
| 20260503203217 | 57 | 32 | 1.0 | 7.0 | 0.00 | 0.00 | 0.00 | 28 | 1017.1 |
| 20260503202714 | 57 | 273 | 2.0 | 2.0 | 0.00 | 0.00 | 0.00 | 32 | 1017.1 |
| 20260503202212 | 56 | 281 | 1.0 | 7.0 | 0.00 | 0.00 | 0.00 | 30 | 1017.1 |
| 20260503201709 | 56 | 327 | 5.0 | 8.0 | 0.00 | 0.00 | 0.00 | 27 | 1017.4 |
| 20260503201207 | 56 | 285 | 7.0 | 8.0 | 0.00 | 0.00 | 0.00 | 34 | 1017.5 |
| 20260503200702 | 57 | 86 | 2.0 | 7.0 | 0.00 | 0.00 | 0.00 | 33 | 1017.3 |
| 20260503200159 | 56 | 314 | 1.0 | 6.0 | 0.00 | 0.00 | 0.00 | 31 | 1017.4 |
| 20260503195656 | 55 | 304 | 2.0 | 7.0 | 0.00 | 0.00 | 0.00 | 33 | 1017.6 |
| 20260503195153 | 57 | 277 | 2.0 | 6.0 | 0.00 | 0.00 | 0.00 | 35 | 1017.9 |
| 20260503194650 | 56 | 42 | 3.0 | 6.0 | 0.00 | 0.00 | 0.00 | 33 | 1017.8 |
| 20260503194145 | 56 | 326 | 1.0 | 4.0 | 0.00 | 0.00 | 0.00 | 30 | 1017.9 |
| 20260503193642 | 56 | 322 | 10.0 | 11.0 | 0.00 | 0.00 | 0.00 | 35 | 1018.0 |
| 20260503193138 | 56 | 309 | 1.0 | 9.0 | 0.00 | 0.00 | 0.00 | 32 | 1017.7 |
| 20260503192634 | 55 | 302 | 2.0 | 6.0 | 0.00 | 0.00 | 0.00 | 32 | 1018.0 |
| 20260503192129 | 56 | 300 | 2.0 | 4.0 | 0.00 | 0.00 | 0.00 | 32 | 1018.2 |
| 20260503191626 | 56 | 310 | 5.0 | 7.0 | 0.00 | 0.00 | 0.00 | 34 | 1018.4 |
| 20260503191124 | 56 | 357 | 1.0 | 13.0 | 0.00 | 0.00 | 0.00 | 33 | 1018.0 |
| 20260503190620 | 55 | 48 | 5.0 | 10.0 | 0.00 | 0.00 | 0.00 | 36 | 1018.0 |
| 20260503190117 | 56 | 316 | 2.0 | 4.0 | 0.00 | 0.00 | 0.00 | 33 | 1018.0 |
| 20260503185614 | 54 | 335 | 3.0 | 6.0 | 0.00 | 0.00 | 0.00 | 31 | 1018.1 |
| 20260503185114 | 55 | 262 | 1.0 | 8.0 | 0.00 | 0.00 | 0.00 | 33 | 1018.2 |
| 20260503184609 | 54 | 306 | 6.0 | 9.0 | 0.00 | 0.00 | 0.00 | 36 | 1018.1 |
| 20260503184106 | 54 | 246 | 3.0 | 9.0 | 0.00 | 0.00 | 0.00 | 34 | 1018.2 |
| 20260503183603 | 54 | 313 | 2.0 | 3.0 | 0.00 | 0.00 | 0.00 | 31 | 1018.6 |
| 20260503183100 | 55 | 77 | 3.0 | 4.0 | 0.00 | 0.00 | 0.00 | 36 | 1018.5 |
| 20260503182558 | 54 | 300 | 1.0 | 7.0 | 0.00 | 0.00 | 0.00 | 29 | 1018.6 |
| 20260503182056 | 53 | 74 | 1.0 | 9.0 | 0.00 | 0.00 | 0.00 | 33 | 1018.6 |
| 20260503181553 | 53 | 160 | 0.0 | 7.0 | 0.00 | 0.00 | 0.00 | 34 | 1018.8 |
| 20260503181049 | 52 | 137 | 1.0 | 8.0 | 0.00 | 0.00 | 0.00 | 33 | 1019.0 |
| 20260503180547 | 53 | 294 | 5.0 | 11.0 | 0.00 | 0.00 | 0.00 | 34 | 1019.1 |
| 20260503180044 | 53 | 33 | 5.0 | 8.0 | 0.00 | 0.00 | 0.00 | 37 | 1019.2 |
| 20260503175541 | 52 | 45 | 4.0 | 7.0 | 0.00 | 0.00 | 0.00 | 40 | 1019.2 |
| 20260503175038 | 51 | 51 | 1.0 | 8.0 | 0.00 | 0.00 | 0.00 | 35 | 1018.9 |
| 20260503174536 | 51 | 283 | 0.0 | 3.0 | 0.00 | 0.00 | 0.00 | 33 | 1019.2 |
| 20260503174032 | 52 | 288 | 6.0 | 8.0 | 0.00 | 0.00 | 0.00 | 34 | 1019.2 |
| 20260503173527 | 53 | 149 | 3.0 | 4.0 | 0.00 | 0.00 | 0.00 | 34 | 1019.0 |